Zurück zum Katalog

DELTA 1 DEB

AktivSSO
NORAD 10755·DEBRIS·🇺🇸 United States

Gestartet Jul 29, 1976 von Vandenberg Space Force Base

Loading…

Nächste Überflüge (nächste 24 Stunden)

TLE

AktuellSource: Space-Track

Epoche: Sep 14, 2026, 10:28 UTC

1 10755U 76077BC  26257.43678214 -.00000043  00000-0  31952-4 0  9994
2 10755 102.5914 235.9923 0080671 223.1805 291.7226 12.26086019244057

Verfolge DELTA 1 DEB in Echtzeit mit AllMySat

Download on the App Store